Location: Valencia
(39.4696°N, 0.3770°W)
Time: 14:45:28
(UTC+02:00)

ISS - Visible Passes

Search period start: 02 September 2015 00:00
Search period end: 12 September 2015 00:00
Orbit: 400 x 403 km, 51.6° (Epoch: 01 September)

Date Brightness Start Highest point End Pass type
(mag) Time Alt. Az. Time Alt. Az. Time Alt. Az.
07 Sep -0.7 06:46:32 10° S 06:48:45 17° SE 06:51:01 10° E visible
09 Sep -2.3 06:35:40 12° SSW 06:38:24 41° SE 06:41:30 10° ENE visible
10 Sep -1.3 05:44:56 20° SE 05:45:14 20° SE 05:47:46 10° E visible
11 Sep -3.4 06:26:42 30° WSW 06:28:09 78° NW 06:31:26 10° NE visible
